{"data":{"norad_id":62863,"epoch":"2026-09-21T09:05:25.995840Z","epoch_age_seconds":92210,"freshness":"FRESH","line1":"1 62863U 25022K   26264.37877310  .00021902  00000+0  65733-3 0  9992","line2":"2 62863  53.1594 297.6341 0001321  63.1903 296.9235 15.34406650 91904","mean_motion":15.3440665,"eccentricity":0.0001321,"inclination_deg":53.1594,"raan_deg":297.6341,"arg_perigee_deg":63.1903,"mean_anomaly_deg":296.9235,"bstar":0.00065733,"rev_number":9190,"period_min":93.847351352394,"perigee_km":461.77980269231,"apogee_km":463.58714746182,"semimajor_km":6840.8204750771,"source":"CELESTRAK","updated_at":"2026-09-22T09:00:49.677402Z"}}